Regional Weather Roundup
Issued by NWS Newport/Morehead, NC

Current Version | Previous Version | Text Only | Print | Product List | Glossary Off
Versions: 1 2 3 4 5 6 7 8 9 10 11 12 13 14 15 16 17 18 19 20 21 22 23 24 25 26 27 28 29 30 31 32 33 34 35 36 37 38 39 40 41 42 43 44 45 46 47 48 49 50

000
ASUS42 KMHX 221425
RWRMHX
WEATHER ROUNDUP FOR EASTERN NORTH CAROLINA
NATIONAL WEATHER SERVICE NEWPORT/MOREHEAD CITY NC
1000 AM EDT THU APR 22 2021

NOTE: "FAIR" INDICATES FEW OR NO CLOUDS BELOW 12,000 FEET
WITH NO SIGNIFICANT WEATHER AND/OR OBSTRUCTIONS TO VISIBILITY

NCZ015>017-031-032-045>047-102-103-221500-
NORTH COAST

CITY           SKY/WX    TMP DP  RH WIND       PRES   REMARKS
EDENTON        SUNNY     50  28  43 NW10      30.13S
ELIZABETH CITY SUNNY     49  24  37 W12G18    30.10F
KITTY HAWK     SUNNY     47  24  39 W12G18    30.09S
MANTEO         SUNNY     47  24  40 NW12G20   30.11S

$$

NCZ045>047-081-094-103-104-221500-
CENTRAL COAST

CITY           SKY/WX    TMP DP  RH WIND       PRES   REMARKS
FRISCO         SUNNY     51  28  41 NW10G18   30.11R

$$

NCZ095-097-098-100-101-221500-
SOUTHERN COAST

CITY           SKY/WX    TMP DP  RH WIND       PRES   REMARKS
PINEY ISLAND   SUNNY     49  24  37 N16       30.13S
BEAUFORT       SUNNY     50  23  34 N15       30.14R
CAPE CARTERET  SUNNY     50  20  30 VRB7G17   30.15S
JACKSONVILLE   MOSUNNY   49  22  34 NW13G20   30.15S
WILMINGTON     SUNNY     51  23  33 N12       30.17S


$$

NCZ011>013-027>030-043-044-078>080-089-090>093-098-221500-
COASTAL PLAIN

CITY           SKY/WX    TMP DP  RH WIND       PRES   REMARKS
AHOSKIE        SUNNY     47  25  42 W6G17     30.12S
ROCKY MOUNT    SUNNY     48  23  37 W15G22    30.15F
GREENVILLE     SUNNY     48  25  40 NW6       30.16S
WASHINGTON     SUNNY     49  25  38 W8        30.14F
GOLDSBORO      SUNNY     50  24  37 W8        30.14F
KINSTON        SUNNY     48  27  43 N9        30.16F
NEW BERN       SUNNY     49  24  37 NW9       30.16S
HAVELOCK       SUNNY     50  25  37 NW16      30.16R
KENANSVILLE    SUNNY     48  25  40 NW8       30.17F
RICHLANDS      SUNNY     49  24  37 N10G16    30.16F
CLINTON        SUNNY     49  26  41 W12       30.18S
ELIZABETHTOWN  SUNNY     49  23  36 NW8       30.19S
WHITEVILLE     SUNNY     49  23  36 N8        30.20S

$$

AMZ130-135-150-152-154-156-158-170-250-252-270-ANZ085-086-088-633-658-670-221500-
MARINE OBSERVATIONS

STATION/POSITION TIME  TEMP    WIND        PRES    WAVE   SWELL
                       AIR SEA DIR/SP/G            HT/PER HT/PER
                 (UTC) (F)     (DEG/KT/KT) (MB)    (FT/S) (FT/S)
64 E VA BEACH    1400      53  310/ 16/ 19 1018.0
64 E VA BEACH    1330   46 53                N/A     7/ 7
DUCK PIER        1348   45     310/ 10/ 18 1018.9
2 E DUCK         1356      54                N/A     3/ 7
10 NE DUCK       1356      53                N/A     5/ 6
OREGON INLET     1336   46 60  310/ 12/ 19 1019.2
13E OREGON INLT  1356      54                N/A     7/ 8   7/ 8
HATTERAS CG      1348   47 63  340/ 18/ 20 1019.5
DIAMOND BUOY     NOT AVBL
CAPE LOOKOUT     1400   47     340/ 15/ 17 1021.0
BEAUFORT LAB     1348   47 65  360/ 12/ 17 1021.2
30 SE NEW RVR IN NOT AVBL
30 SE NEW RVR IN 1356      67                N/A     5/ 5
27 SE WRIGHTSVLE 1408   49 67   20/ 16/ 25 1020.9
5 SE WRIGHTSVLE  1408   47 63  360/ 10/ 17 1021.8
27 SE WRIGHTSVL  1408   49 67   20/ 16/ 25 1020.9
FRYING PAN BUOY  1410      68   10/ 16/ 21 1020.8
225 S CAPE HAT   NOT AVBL
41 SE CHARLESTON NOT AVBL

$$



USA.gov is the U.S. government's official web portal to all federal, state and local government web resources and services.